Tracking 25648 objects as of 17-May-2022
HD Live streaming from Space Station
objects crossing your sky now

COSMOS 2251 DEB

Track COSMOS 2251 DEB now!
10-day predictions


NORAD ID: 34482
Int'l Code: 1993-036UB
Perigee: 710.4 km
Apogee: 816.9 km
Inclination: 74.0 °
Period: 100.0 minutes
Semi major axis: 7134 km
RCS: 0.033 m2 (small)
Launch date: June 16, 1993
Source: Commonwealth of Independent States (former USSR) (CIS)
Launch site: PLESETSK MISSILE AND SPACE COMPLEX (PKMTR)

Note: This is SATELLITE DEBRIS
aabbcc
Your satellite tracking list
Your tracking list is empty




NASA's NSSDC Master Catalog

Two Line Element Set (TLE):
1 34482U 93036UB  22136.53051084  .00003406  00000-0  10413-2 0  9996
2 34482  74.0484 160.8718 0074601 190.7597 323.0013 14.40605123692855
Source of the keplerian elements: AFSPC